[[{"header":{"parameterUnit":"m.s-1","parameterCategory":1,"la1":30.2991,"la2":30.254,"lo1":-89.0895,"lo2":-89.0444,"dy":0.0017,"dx":0.0017,"nx":28,"ny":28,"refTime":"2025-07-22T09:00:00:Z","depth":0,"parameterNumber":2,"parameterNumberName":"U-component_of_WINDS"},"data":[0,0,0,0,0,0,0,0,0,0,0,0,0,0,0,0,0,0,0,0,0,0,0,0,0,0,0,0,0,0,0,0,0,0,0,0,0,0,0,0,0,0,0,0,0,0,0,0,0,0,0,0,0,0,0,0,0,0,1.5519,1.552,0,1.5572,1.5572,1.5573,1.5479,1.5475,1.5472,1.5469,1.5535,1.5539,1.5544,0,0,0,0,0,0,0,0,0,0,0,0,0,1.5348,1.5352,1.5519,1.552,1.552,1.5572,1.5572,1.5573,1.5479,1.5475,1.5471,1.5468,1.5533,1.5539,1.5544,0,0,0,0,0,0,0,0,0,0,0,0,0,1.5414,1.5353,1.5519,1.5479,1.5476,1.5571,1.5572,1.5573,1.548,1.5475,1.547,1.5466,1.5531,1.5538,1.5545,1.5685,0,0,1.5567,1.557,0,0,0,0,0,0,0,0,1.5411,1.5421,1.5485,1.5482,1.5479,1.5513,1.5536,1.5611,1.5481,1.5479,1.5469,1.5464,1.5532,1.5539,1.556,1.5688,1.5691,1.5567,1.5572,1.5575,1.5577,0,0,0,0,0,0,0,1.5406,1.5418,1.554,1.5486,1.5482,1.5463,1.5467,1.555,1.5532,1.5479,1.5472,1.5479,1.553,1.5553,1.5561,1.5692,1.5567,1.5574,1.5578,1.5581,1.5939,1.5944,0,0,0,0,0,0,1.5405,1.5415,1.5539,1.5542,1.5432,1.547,1.5474,1.5508,1.5531,1.553,1.5483,1.5474,1.5543,1.5552,1.5563,1.5729,1.5575,1.5581,1.5585,1.5933,1.594,1.5945,0,0,0,0,0,0,1.5402,1.5417,1.5536,1.5476,1.549,1.5477,1.5516,1.5511,1.5534,1.5534,1.5532,1.5509,1.554,1.5553,1.5655,1.573,1.5585,1.5591,1.5927,1.5935,1.5943,1.6062,0,0,0,0,0,0,1.5397,1.5416,1.5467,1.5478,1.5493,1.5625,1.552,1.5516,1.5545,1.5534,1.5558,1.5557,1.5537,1.5644,1.5662,1.5737,1.5597,1.592,1.5931,1.594,1.6051,1.6073,1.6091,0,0,0,0,0,1.5391,1.5501,1.547,1.5485,1.5556,1.5629,1.5638,1.561,1.5551,1.5604,1.5604,1.5557,1.5718,1.5656,1.5674,1.5753,1.5916,1.5928,1.5939,1.6042,1.6068,1.6091,0,0,0,0,0,0,1.5503,1.5501,1.5467,1.5582,1.5606,1.5613,1.5678,1.5638,1.5682,1.5671,1.5636,1.5643,1.5753,1.5762,1.5693,1.589,1.5808,1.5824,1.5879,1.5904,1.5924,1.5921,1.5602,0,0,0,0,0,1.554,1.5596,1.5593,1.5695,1.5708,1.5692,1.5722,1.5698,1.5723,1.5733,1.5741,1.577,1.5827,1.5866,1.5918,1.6051,1.6057,1.6114,1.6134,1.6151,1.6166,1.6239,1.6265,1.5984,1.5984,1.5984,0,0,1.5619,1.5625,1.5663,1.5718,1.5733,1.5796,1.5701,1.5771,1.5818,1.5745,1.5841,1.5848,1.5878,1.5996,1.6049,1.6008,1.6244,1.6166,1.6179,1.6185,1.6254,1.628,1.6304,1.5992,1.5991,1.599,0,0,1.5795,1.5804,1.589,1.5907,1.593,1.5917,1.5938,1.5951,1.5952,1.6046,1.5993,1.605,1.6149,1.6173,1.6199,1.6383,1.6342,1.6401,1.6507,1.6578,1.66,1.662,1.6688,1.6713,1.6416,1.6416,1.6416,0,1.5892,1.5979,1.5941,1.6014,1.6041,1.5973,1.6063,1.6082,1.6123,1.6145,1.6097,1.6219,1.6235,1.6359,1.6403,1.6425,1.6451,1.6399,1.6599,1.6619,1.6637,1.6701,1.6727,1.6423,1.6422,1.6421,1.6421,0,1.6098,1.616,1.6228,1.6265,1.6299,1.6381,1.6357,1.6397,1.6369,1.6363,1.6462,1.6478,1.6533,1.656,1.6535,1.6681,1.6655,1.6604,1.6522,1.6671,1.6731,1.6756,1.6433,1.6431,1.6429,1.6427,0,0,1.6348,1.6361,1.6387,1.6403,1.6423,1.6472,1.6551,1.6601,1.6637,1.6667,1.6735,1.682,1.6772,1.6801,1.6778,1.684,1.6988,1.6782,1.6782,1.6822,1.7152,1.7192,1.7221,1.6959,1.6964,1.6967,1.7151,0,1.6525,1.6656,1.6624,1.6757,1.6815,1.6751,1.6821,1.6843,1.6839,1.6891,1.6888,1.6949,1.688,1.6898,1.6956,1.6957,1.7054,1.6943,1.7027,1.703,1.7023,1.7252,1.7295,1.7467,1.7174,1.7178,1.718,0,1.6748,1.6783,1.6921,1.6931,1.6954,1.7017,1.706,1.7109,1.7134,1.7127,1.7158,1.7123,1.7205,1.7119,1.7233,1.7159,1.719,1.7196,1.7202,1.7212,1.7116,1.7271,1.7521,1.7548,1.7217,1.7214,1.7211,0,1.692,1.7001,1.7094,1.711,1.7124,1.7169,1.7178,1.7197,1.7229,1.7268,1.7289,1.7339,1.7367,1.7408,1.7388,1.7327,1.7508,1.7419,1.7508,1.7509,1.7551,1.7549,1.7813,1.7567,1.7567,1.7566,1.7566,0,1.7121,1.7209,1.7171,1.7229,1.7326,1.7288,1.7386,1.7388,1.7405,1.7465,1.7413,1.7471,1.744,1.7497,1.7483,1.7581,1.7594,1.7593,1.7589,1.7599,1.76,1.7622,1.7611,1.7573,1.7572,1.757,1.7569,0,1.733,1.7308,1.7406,1.7409,1.7412,1.7484,1.7489,1.7545,1.7536,1.7612,1.7628,1.7616,1.768,1.7663,1.7734,1.7724,1.7849,1.7828,1.784,1.7836,1.7926,1.7919,1.8215,1.8253,1.7981,1.7983,1.7986,0,1.7462,1.7527,1.7537,1.7571,1.7582,1.7638,1.7669,1.7636,1.7671,1.7703,1.7756,1.7814,1.7859,1.7965,1.7965,1.8019,1.8002,1.8101,1.801,1.8018,1.8006,1.8004,1.8011,1.8121,1.8124,1.8127,1.8129,0,1.7698,1.7684,1.7729,1.7771,1.7809,1.7841,1.7869,1.7901,1.787,1.7913,1.7975,1.801,1.808,1.814,1.8189,1.8202,1.8163,1.8157,1.8181,1.8194,1.8199,1.82,1.7893,1.8151,1.8149,1.8147,1.8146,1.8145,1.7874,1.7929,1.7945,1.7997,1.8014,1.8041,1.8093,1.8089,1.8139,1.8191,1.8169,1.8242,1.8266,1.8327,1.8346,1.8405,1.8368,1.8401,1.8411,1.842,1.8432,1.8186,1.8414,1.8413,1.8412,1.8412,1.8411,0,1.811,1.8116,1.8164,1.8203,1.8246,1.8198,1.8227,1.8267,1.833,1.8354,1.8398,1.8471,1.8528,1.8532,1.8587,1.8633,1.8617,1.8649,1.8647,1.8651,1.8461,1.8436,1.8662,1.8662,1.8662,1.8662,1.8662,1.8662,1.8238,1.8329,1.8316,1.8417,1.8422,1.849,1.8511,1.8537,1.8555,1.8638,1.8684,1.8684,1.8701,1.8756,1.8808,1.8808,1.8832,1.8872,1.8866,1.8689,1.8665,1.8641,1.8617,1.8877,1.8877,1.9051,1.9053,1.9054]},{"header":{"parameterUnit":"m.s-1","parameterCategory":1,"la1":30.2991,"la2":30.254,"lo1":-89.0895,"lo2":-89.0444,"dy":0.0017,"dx":0.0017,"nx":28,"ny":28,"refTime":"2025-07-22T09:00:00:Z","depth":0,"parameterNumber":3,"parameterNumberName":"V-component_of_WINDS"},"data":[0,0,0,0,0,0,0,0,0,0,0,0,0,0,0,0,0,0,0,0,0,0,0,0,0,0,0,0,0,0,0,0,0,0,0,0,0,0,0,0,0,0,0,0,0,0,0,0,0,0,0,0,0,0,0,0,0,0,0.6737,0.6739,0,0.6918,0.692,0.6922,0.694,0.6938,0.6936,0.6935,0.7124,0.713,0.7137,0,0,0,0,0,0,0,0,0,0,0,0,0,0.6409,0.6415,0.6737,0.674,0.6742,0.6918,0.6921,0.6923,0.6941,0.6938,0.6936,0.6934,0.7121,0.7129,0.7138,0,0,0,0,0,0,0,0,0,0,0,0,0,0.6567,0.6417,0.6737,0.6772,0.6777,0.6918,0.6921,0.6924,0.6941,0.6938,0.6935,0.6933,0.7119,0.7129,0.7139,0.7259,0,0,0.717,0.7174,0,0,0,0,0,0,0,0,0.6558,0.6579,0.6764,0.677,0.6775,0.6904,0.6874,0.7036,0.6942,0.6879,0.6935,0.6931,0.7053,0.7068,0.7109,0.7267,0.7275,0.7171,0.7177,0.7181,0.7184,0,0,0,0,0,0,0,0.6547,0.6572,0.6809,0.6767,0.6774,0.6779,0.6798,0.6905,0.698,0.6884,0.6886,0.6907,0.7055,0.7099,0.7113,0.7278,0.717,0.718,0.7186,0.719,0.7544,0.7547,0,0,0,0,0,0,0.6529,0.6562,0.6803,0.6814,0.6657,0.6787,0.6809,0.6865,0.6979,0.6993,0.6909,0.6907,0.7083,0.7101,0.712,0.7268,0.7181,0.7191,0.7197,0.7541,0.7545,0.7548,0,0,0,0,0,0,0.6522,0.6551,0.6796,0.6689,0.6721,0.6796,0.6859,0.687,0.6914,0.6997,0.7011,0.6939,0.7081,0.7106,0.7224,0.7275,0.7195,0.7205,0.7537,0.7542,0.7546,0.7565,0,0,0,0,0,0,0.6513,0.6548,0.6594,0.669,0.6726,0.6896,0.6862,0.6876,0.6931,0.693,0.703,0.7043,0.7081,0.7208,0.7234,0.7288,0.7213,0.7533,0.7539,0.7545,0.756,0.757,0.7579,0,0,0,0,0,0.6501,0.6593,0.6596,0.6625,0.6785,0.6899,0.692,0.696,0.6935,0.6982,0.7036,0.704,0.7264,0.722,0.7249,0.7307,0.753,0.7537,0.7544,0.7556,0.7568,0.7578,0,0,0,0,0,0,0.6503,0.6606,0.6611,0.6737,0.6809,0.6902,0.6963,0.6972,0.7054,0.7049,0.7097,0.7119,0.7235,0.7283,0.7231,0.7428,0.7395,0.7408,0.7394,0.7406,0.7415,0.7402,0.7221,0,0,0,0,0,0.6518,0.6601,0.6687,0.6789,0.6825,0.6887,0.6939,0.6963,0.704,0.7071,0.7133,0.7209,0.7296,0.7353,0.7438,0.7566,0.7589,0.762,0.7629,0.7636,0.7648,0.7719,0.7735,0.7573,0.7572,0.7572,0,0,0.655,0.6616,0.6666,0.6791,0.685,0.6936,0.6913,0.7005,0.7069,0.7086,0.7201,0.7249,0.7336,0.7459,0.7517,0.7502,0.7697,0.7645,0.765,0.7659,0.7729,0.7744,0.7757,0.7578,0.7577,0.7576,0,0,0.6653,0.6711,0.6803,0.6861,0.695,0.699,0.7012,0.7104,0.7136,0.7251,0.7265,0.7342,0.7492,0.7554,0.7605,0.7728,0.7736,0.7754,0.7803,0.7872,0.7885,0.7896,0.7941,0.7957,0.7765,0.7765,0.7765,0,0.6682,0.6811,0.6849,0.694,0.6995,0.7011,0.7105,0.716,0.7273,0.7311,0.7292,0.7479,0.7539,0.7677,0.7707,0.7747,0.7775,0.7745,0.7879,0.7891,0.7903,0.7947,0.7963,0.7767,0.7767,0.7767,0.7766,0,0.6843,0.6932,0.6996,0.7102,0.7164,0.7256,0.7308,0.7366,0.7384,0.7427,0.7544,0.7616,0.7716,0.775,0.777,0.7891,0.7879,0.7869,0.7837,0.7919,0.7961,0.7978,0.777,0.7769,0.7768,0.7768,0,0,0.6956,0.708,0.7103,0.7151,0.7249,0.7319,0.7411,0.7507,0.7556,0.7632,0.7712,0.7837,0.7828,0.7885,0.7911,0.7971,0.8066,0.7954,0.7957,0.7974,0.8205,0.8214,0.8232,0.807,0.8073,0.8076,0.8198,0,0.7071,0.7236,0.7271,0.7413,0.7496,0.7511,0.7592,0.7661,0.7702,0.7779,0.7825,0.7914,0.7894,0.7929,0.7989,0.8041,0.8113,0.8033,0.8146,0.815,0.8126,0.8254,0.8264,0.8377,0.8215,0.8218,0.822,0,0.7229,0.7307,0.7457,0.7542,0.7578,0.765,0.7741,0.7813,0.7892,0.7917,0.798,0.8,0.8097,0.8057,0.8192,0.8137,0.8185,0.8217,0.8222,0.8237,0.8192,0.8274,0.8413,0.8431,0.8246,0.8243,0.8242,0,0.7298,0.744,0.7548,0.7589,0.7691,0.7741,0.7786,0.7861,0.7916,0.7995,0.8032,0.8121,0.8171,0.824,0.8283,0.825,0.8415,0.8379,0.8441,0.844,0.8478,0.8475,0.8629,0.8504,0.8504,0.8504,0.8503,0,0.7424,0.7516,0.758,0.7647,0.775,0.779,0.7891,0.7936,0.8002,0.8079,0.8096,0.8168,0.8219,0.8298,0.8332,0.8439,0.8461,0.8485,0.8494,0.8486,0.8483,0.852,0.8514,0.8508,0.8507,0.8506,0.8505,0,0.752,0.7567,0.7686,0.7772,0.7795,0.7868,0.7942,0.8008,0.8047,0.8144,0.8169,0.8233,0.8326,0.8375,0.8492,0.8515,0.8636,0.8639,0.861,0.8614,0.8674,0.8668,0.8859,0.8886,0.8741,0.8742,0.8743,0,0.7599,0.767,0.7763,0.7814,0.786,0.7943,0.7999,0.804,0.8097,0.819,0.8245,0.8338,0.8416,0.8565,0.8622,0.8712,0.8718,0.8778,0.8732,0.8721,0.8722,0.8718,0.8726,0.8788,0.8789,0.879,0.8791,0,0.7735,0.7754,0.7833,0.792,0.7986,0.8057,0.8127,0.8168,0.822,0.8284,0.8379,0.8439,0.8557,0.865,0.8743,0.8791,0.8801,0.8805,0.8824,0.8818,0.8799,0.8812,0.8635,0.8801,0.88,0.8799,0.8799,0.8798,0.7827,0.7891,0.7965,0.8053,0.8109,0.8173,0.8239,0.8286,0.8366,0.8465,0.8483,0.8584,0.8659,0.8785,0.8835,0.8915,0.8903,0.893,0.8938,0.8945,0.8949,0.8783,0.8932,0.8931,0.8931,0.8931,0.8931,0,0.7966,0.8014,0.8093,0.819,0.8258,0.8258,0.8335,0.8393,0.8481,0.8549,0.8625,0.8733,0.8823,0.8887,0.8978,0.903,0.9037,0.9053,0.9051,0.9062,0.8954,0.8928,0.9046,0.9046,0.9046,0.9046,0.9046,0.9046,0.8046,0.8154,0.8181,0.8316,0.8364,0.8462,0.8506,0.8565,0.862,0.874,0.8815,0.8854,0.8921,0.9018,0.91,0.9117,0.9151,0.9167,0.9184,0.9082,0.907,0.9058,0.9035,0.9173,0.9174,0.9287,0.9288,0.9288]}]]